QTR1226 OMAA-OEDF

Flight info

Callsign QTR1226
Flight time 0h 55m
Altitude 26000
Route BOSEV N563 IMGUX P699 ORMID M556 NARMI
Aircraft A320/M-SDE3FGHIRWY/LB1

Departure

Time 2026-05-07 15:28
Airport Zayed International Airport (OMAA)

Arrival

Time 2026-05-07 16:23
Airport King Fahd International Airport (OEDF)
Time Latitude Longitude Altitude Speed Heading
2026-05-07 15:05 24.44807 54.64240 76 ft 0 kts 73°
2026-05-07 15:18 24.44806 54.64236 75 ft 3 kts 73°
2026-05-07 15:18 24.44799 54.64207 75 ft 4 kts 77°
2026-05-07 15:18 24.44793 54.64178 75 ft 4 kts 81°
2026-05-07 15:18 24.44790 54.64149 75 ft 4 kts 90°
2026-05-07 15:19 24.44794 54.64121 75 ft 4 kts 123°
2026-05-07 15:19 24.44805 54.64110 75 ft 1 kts 165°
2026-05-07 15:19 24.44808 54.64109 75 ft 0 kts 165°
2026-05-07 15:22 24.44807 54.64110 75 ft 1 kts 165°
2026-05-07 15:22 24.44758 54.64124 75 ft 11 kts 165°
2026-05-07 15:23 24.44668 54.64154 76 ft 16 kts 162°
2026-05-07 15:23 24.44549 54.64128 76 ft 22 kts 215°
2026-05-07 15:23 24.44411 54.64057 76 ft 23 kts 156°
2026-05-07 15:23 24.44276 54.64217 76 ft 32 kts 127°
2026-05-07 15:24 24.44121 54.64433 76 ft 40 kts 129°
2026-05-07 15:24 24.43940 54.64690 76 ft 46 kts 127°
2026-05-07 15:24 24.43728 54.64988 76 ft 52 kts 127°
2026-05-07 15:24 24.43494 54.65317 76 ft 56 kts 129°
2026-05-07 15:25 24.43271 54.65633 76 ft 44 kts 129°
2026-05-07 15:25 24.43081 54.65900 76 ft 44 kts 127°
2026-05-07 15:25 24.42892 54.66167 76 ft 44 kts 128°
2026-05-07 15:25 24.42700 54.66433 76 ft 44 kts 128°
2026-05-07 15:26 24.42511 54.66700 76 ft 44 kts 128°
2026-05-07 15:26 24.42413 54.66787 76 ft 7 kts 198°
2026-05-07 15:26 24.42372 54.66739 76 ft 11 kts 228°
2026-05-07 15:26 24.42302 54.66667 75 ft 20 kts 219°
2026-05-07 15:27 24.42282 54.66561 75 ft 17 kts 304°
2026-05-07 15:27 24.42479 54.66281 78 ft 81 kts 307°
2026-05-07 15:27 24.42952 54.65617 76 ft 134 kts 307°
2026-05-07 15:27 24.43609 54.64678 95 ft 174 kts 307°
2026-05-07 15:28 24.44113 54.63972 373 ft 181 kts 307°
2026-05-07 15:28 24.45167 54.62455 1169 ft 191 kts 306°
2026-05-07 15:28 24.45694 54.61656 1631 ft 192 kts 304°
2026-05-07 15:28 24.46434 54.60468 2283 ft 191 kts 302°
2026-05-07 15:29 24.47144 54.59246 2930 ft 190 kts 301°
2026-05-07 15:29 24.47898 54.58026 3388 ft 202 kts 308°
2026-05-07 15:29 24.48872 54.56753 3662 ft 227 kts 310°
2026-05-07 15:29 24.49951 54.55392 4044 ft 251 kts 310°
2026-05-07 15:30 24.51130 54.53876 4598 ft 268 kts 309°
2026-05-07 15:30 24.52336 54.52280 5419 ft 274 kts 309°
2026-05-07 15:30 24.53953 54.50078 6532 ft 280 kts 308°
2026-05-07 15:30 24.54754 54.48964 7064 ft 282 kts 307°
2026-05-07 15:31 24.55973 54.47251 7846 ft 286 kts 307°
2026-05-07 15:31 24.57203 54.45509 8598 ft 290 kts 307°
2026-05-07 15:31 24.58467 54.43717 9096 ft 296 kts 307°
2026-05-07 15:31 24.59710 54.41954 9210 ft 296 kts 307°
2026-05-07 15:32 24.60969 54.40170 9230 ft 295 kts 307°
2026-05-07 15:32 24.62231 54.38386 9232 ft 295 kts 307°
2026-05-07 15:32 24.63490 54.36609 9232 ft 295 kts 307°
2026-05-07 15:32 24.64758 54.34816 9492 ft 299 kts 307°
2026-05-07 15:33 24.66038 54.33013 10263 ft 300 kts 307°
2026-05-07 15:33 24.67358 54.31156 10543 ft 319 kts 307°
2026-05-07 15:33 24.68769 54.29161 10677 ft 340 kts 307°
2026-05-07 15:33 24.70246 54.27073 11032 ft 350 kts 307°
2026-05-07 15:34 24.71753 54.24944 11550 ft 355 kts 307°
2026-05-07 15:34 24.73300 54.22758 11736 ft 370 kts 307°
2026-05-07 15:34 24.74910 54.20484 11868 ft 384 kts 307°
2026-05-07 15:34 24.76576 54.18129 11996 ft 396 kts 307°
2026-05-07 15:35 24.78293 54.15696 12122 ft 408 kts 307°
2026-05-07 15:35 24.80049 54.13202 12285 ft 417 kts 307°
2026-05-07 15:35 24.81834 54.10666 12604 ft 421 kts 307°
2026-05-07 15:35 24.83625 54.08095 12967 ft 424 kts 305°
2026-05-07 15:36 24.85213 54.05343 13313 ft 427 kts 301°
2026-05-07 15:36 24.86780 54.02557 13670 ft 429 kts 301°
2026-05-07 15:36 24.88353 53.99757 14005 ft 431 kts 301°
2026-05-07 15:36 24.89936 53.96939 14318 ft 434 kts 301°
2026-05-07 15:37 24.91522 53.94106 14616 ft 436 kts 301°
2026-05-07 15:37 24.93117 53.91250 14902 ft 438 kts 301°
2026-05-07 15:37 24.94713 53.88385 15176 ft 440 kts 301°
2026-05-07 15:37 24.96298 53.85541 15435 ft 442 kts 301°
2026-05-07 15:38 24.97912 53.82651 15688 ft 444 kts 301°
2026-05-07 15:38 24.99537 53.79743 15932 ft 446 kts 301°
2026-05-07 15:38 25.01179 53.76839 16162 ft 448 kts 303°
2026-05-07 15:38 25.03184 53.74207 16365 ft 450 kts 315°
2026-05-07 15:39 25.05427 53.71790 16577 ft 452 kts 315°
2026-05-07 15:39 25.07684 53.69377 16787 ft 453 kts 315°
2026-05-07 15:39 25.09954 53.66954 16988 ft 455 kts 315°
2026-05-07 15:39 25.12226 53.64524 17140 ft 457 kts 315°
2026-05-07 15:40 25.14520 53.62067 17266 ft 460 kts 315°
2026-05-07 15:40 25.16819 53.59600 17391 ft 463 kts 315°
2026-05-07 15:40 25.19130 53.57114 17517 ft 465 kts 315°
2026-05-07 15:40 25.21450 53.54618 17643 ft 467 kts 315°
2026-05-07 15:41 25.23784 53.52106 17768 ft 469 kts 315°
2026-05-07 15:41 25.25959 53.49431 17888 ft 469 kts 304°
2026-05-07 15:41 25.27657 53.46353 18018 ft 470 kts 300°
2026-05-07 15:41 25.29306 53.43221 18143 ft 472 kts 300°
2026-05-07 15:42 25.30949 53.40076 18268 ft 473 kts 300°
2026-05-07 15:42 25.32587 53.36931 18662 ft 466 kts 300°
2026-05-07 15:42 25.34170 53.33890 19682 ft 446 kts 300°
2026-05-07 15:42 25.35683 53.30987 20662 ft 428 kts 300°
2026-05-07 15:43 25.37163 53.28157 21169 ft 423 kts 300°
2026-05-07 15:43 25.38632 53.25344 21456 ft 423 kts 300°
2026-05-07 15:43 25.40102 53.22521 21675 ft 424 kts 299°
2026-05-07 15:43 25.41576 53.19685 21873 ft 426 kts 300°
2026-05-07 15:44 25.43058 53.16838 22058 ft 427 kts 300°
2026-05-07 15:44 25.44540 53.13990 22233 ft 428 kts 300°
2026-05-07 15:44 25.46031 53.11128 22405 ft 430 kts 300°
2026-05-07 15:44 25.47526 53.08259 22565 ft 431 kts 300°
2026-05-07 15:45 25.49025 53.05381 22722 ft 432 kts 300°
2026-05-07 15:45 25.50507 53.02534 22873 ft 433 kts 300°
2026-05-07 15:45 25.52030 52.99596 23027 ft 435 kts 299°
2026-05-07 15:45 25.53512 52.96733 23169 ft 436 kts 299°
2026-05-07 15:46 25.56530 52.90890 23449 ft 438 kts 299°
2026-05-07 15:46 25.58023 52.87946 23583 ft 439 kts 298°
2026-05-07 15:46 25.59487 52.84973 23716 ft 440 kts 298°
2026-05-07 15:47 25.60935 52.81984 23845 ft 441 kts 297°
2026-05-07 15:47 25.62380 52.78983 23970 ft 442 kts 297°
2026-05-07 15:47 25.63828 52.75975 24096 ft 443 kts 297°
2026-05-07 15:47 25.65282 52.72959 24224 ft 444 kts 297°
2026-05-07 15:48 25.66737 52.69945 24348 ft 444 kts 298°
2026-05-07 15:48 25.68205 52.66919 24474 ft 445 kts 298°
2026-05-07 15:48 25.69677 52.63896 24599 ft 445 kts 298°
2026-05-07 15:48 25.71150 52.60876 24725 ft 446 kts 298°
2026-05-07 15:49 25.72624 52.57848 24850 ft 446 kts 298°
2026-05-07 15:49 25.74092 52.54826 24975 ft 446 kts 298°
2026-05-07 15:49 25.75561 52.51795 25100 ft 446 kts 298°
2026-05-07 15:49 25.77020 52.48763 25225 ft 446 kts 297°
2026-05-07 15:50 25.78454 52.45712 25350 ft 445 kts 297°
2026-05-07 15:50 25.79866 52.42659 25475 ft 445 kts 296°
2026-05-07 15:50 25.81272 52.39601 25600 ft 445 kts 296°
2026-05-07 15:50 25.82681 52.36543 25725 ft 445 kts 297°
2026-05-07 15:51 25.84090 52.33489 25860 ft 444 kts 297°
2026-05-07 15:51 25.85480 52.30481 25984 ft 444 kts 297°
2026-05-07 15:51 25.86998 52.27484 26011 ft 446 kts 304°
2026-05-07 15:51 25.88938 52.24792 26010 ft 449 kts 312°
2026-05-07 15:52 25.91062 52.22239 26009 ft 452 kts 312°
2026-05-07 15:52 25.93205 52.19662 26009 ft 454 kts 312°
2026-05-07 15:52 25.95349 52.17080 26009 ft 456 kts 312°
2026-05-07 15:52 25.97500 52.14484 26009 ft 458 kts 312°
2026-05-07 15:53 25.99661 52.11872 26009 ft 460 kts 312°
2026-05-07 15:53 26.01830 52.09245 26009 ft 462 kts 312°
2026-05-07 15:53 26.04009 52.06602 26009 ft 466 kts 312°
2026-05-07 15:53 26.06205 52.03941 26009 ft 468 kts 312°
2026-05-07 15:54 26.08412 52.01269 26009 ft 470 kts 312°
2026-05-07 15:54 26.10628 51.98584 26009 ft 472 kts 312°
2026-05-07 15:54 26.12854 51.95885 26009 ft 474 kts 312°
2026-05-07 15:54 26.15085 51.93177 26009 ft 476 kts 312°
2026-05-07 15:55 26.17324 51.90460 26009 ft 477 kts 312°
2026-05-07 15:55 26.19572 51.87735 26009 ft 479 kts 312°
2026-05-07 15:55 26.21800 51.85034 26009 ft 480 kts 313°
2026-05-07 15:55 26.24331 51.82611 26006 ft 482 kts 327°
2026-05-07 15:56 26.27357 51.81036 26010 ft 483 kts 343°
2026-05-07 15:56 26.30670 51.80435 26009 ft 484 kts 359°
2026-05-07 15:56 26.34010 51.80861 26009 ft 485 kts 15°
2026-05-07 15:56 26.37128 51.82286 26009 ft 486 kts 31°
2026-05-07 15:57 26.39786 51.84604 26009 ft 487 kts 46°
2026-05-07 15:57 26.41781 51.87638 26009 ft 487 kts 62°
2026-05-07 15:57 26.42978 51.91159 26012 ft 487 kts 76°
2026-05-07 15:57 26.43935 51.94784 26003 ft 487 kts 66°
2026-05-07 15:58 26.45754 51.97961 26010 ft 487 kts 47°
2026-05-07 15:58 26.48407 52.00281 26009 ft 487 kts 27°
2026-05-07 15:58 26.51600 52.01512 26009 ft 487 kts 10°
2026-05-07 15:58 26.54965 52.01887 26010 ft 487 kts
2026-05-07 15:59 26.58348 52.01658 26008 ft 488 kts 351°
2026-05-07 15:59 26.61617 52.00673 26009 ft 487 kts 336°
2026-05-07 15:59 26.64489 51.98792 26009 ft 486 kts 320°
2026-05-07 15:59 26.66825 51.96007 26009 ft 486 kts 304°
2026-05-07 16:00 26.68402 51.92683 26009 ft 485 kts 290°
2026-05-07 16:00 26.69215 51.89031 26009 ft 485 kts 276°
2026-05-07 16:00 26.69229 51.85272 26010 ft 485 kts 263°
2026-05-07 16:00 26.68811 51.81588 26009 ft 485 kts 262°
2026-05-07 16:01 26.68355 51.77843 26009 ft 485 kts 262°
2026-05-07 16:01 26.67646 51.74163 26005 ft 485 kts 251°
2026-05-07 16:01 26.66389 51.70669 26010 ft 485 kts 247°
2026-05-07 16:01 26.65079 51.67191 26009 ft 485 kts 247°
2026-05-07 16:02 26.63757 51.63720 26009 ft 486 kts 246°
2026-05-07 16:02 26.62425 51.60246 26009 ft 486 kts 246°
2026-05-07 16:02 26.61092 51.56778 26009 ft 486 kts 246°
2026-05-07 16:02 26.59758 51.53305 26009 ft 486 kts 246°
2026-05-07 16:03 26.58424 51.49834 26009 ft 487 kts 246°
2026-05-07 16:03 26.57092 51.46363 26009 ft 487 kts 246°
2026-05-07 16:03 26.55759 51.42884 26009 ft 487 kts 246°
2026-05-07 16:03 26.54429 51.39407 26009 ft 487 kts 246°
2026-05-07 16:04 26.53100 51.35927 26009 ft 487 kts 246°
2026-05-07 16:04 26.51770 51.32450 25901 ft 486 kts 246°
2026-05-07 16:04 26.50461 51.29038 25634 ft 470 kts 246°
2026-05-07 16:04 26.49193 51.25747 25357 ft 455 kts 246°
2026-05-07 16:05 26.47960 51.22557 25107 ft 441 kts 246°
2026-05-07 16:05 26.46762 51.19451 24858 ft 432 kts 246°
2026-05-07 16:05 26.45578 51.16386 24608 ft 428 kts 246°
2026-05-07 16:05 26.44404 51.13345 24358 ft 426 kts 246°
2026-05-07 16:06 26.43235 51.10322 24108 ft 424 kts 246°
2026-05-07 16:06 26.42067 51.07309 23857 ft 421 kts 246°
2026-05-07 16:06 26.40907 51.04320 23607 ft 419 kts 246°
2026-05-07 16:06 26.39752 51.01337 23357 ft 417 kts 246°
2026-05-07 16:07 26.38607 50.98375 23107 ft 416 kts 246°
2026-05-07 16:07 26.37480 50.95458 22860 ft 414 kts 246°
2026-05-07 16:07 26.36326 50.92481 22606 ft 412 kts 246°
2026-05-07 16:07 26.35209 50.89609 22304 ft 405 kts 246°
2026-05-07 16:08 26.34095 50.86747 21836 ft 400 kts 246°
2026-05-07 16:08 26.32991 50.83916 21345 ft 396 kts 246°
2026-05-07 16:08 26.31901 50.81111 20862 ft 392 kts 246°
2026-05-07 16:08 26.30825 50.78336 20366 ft 388 kts 246°
2026-05-07 16:09 26.29755 50.75589 19873 ft 384 kts 246°
2026-05-07 16:09 26.28695 50.72874 19365 ft 381 kts 246°
2026-05-07 16:09 26.27642 50.70178 18861 ft 378 kts 246°
2026-05-07 16:09 26.26678 50.67468 18353 ft 375 kts 253°
2026-05-07 16:10 26.26214 50.64624 17850 ft 372 kts 266°
2026-05-07 16:10 26.26319 50.61752 17326 ft 370 kts 278°
2026-05-07 16:10 26.26693 50.58946 16815 ft 368 kts 278°
2026-05-07 16:10 26.27064 50.56138 16297 ft 365 kts 278°
2026-05-07 16:11 26.27427 50.53349 15783 ft 363 kts 278°
2026-05-07 16:11 26.27783 50.50573 15273 ft 360 kts 278°
2026-05-07 16:11 26.28133 50.47820 14766 ft 358 kts 277°
2026-05-07 16:11 26.28482 50.45085 14264 ft 355 kts 278°
2026-05-07 16:12 26.28832 50.42373 13763 ft 353 kts 278°
2026-05-07 16:12 26.29178 50.39674 13266 ft 351 kts 278°
2026-05-07 16:12 26.29521 50.36996 12775 ft 348 kts 278°
2026-05-07 16:12 26.29861 50.34336 12369 ft 344 kts 277°
2026-05-07 16:13 26.30027 50.31706 11917 ft 339 kts 268°
2026-05-07 16:13 26.29923 50.29094 11442 ft 329 kts 266°
2026-05-07 16:13 26.29810 50.26658 11122 ft 312 kts 266°
2026-05-07 16:13 26.29693 50.24280 10546 ft 305 kts 266°
2026-05-07 16:14 26.29576 50.21932 9916 ft 301 kts 266°
2026-05-07 16:14 26.29460 50.19614 9283 ft 298 kts 266°
2026-05-07 16:14 26.29347 50.17327 8655 ft 294 kts 266°
2026-05-07 16:14 26.29237 50.15061 8031 ft 291 kts 266°
2026-05-07 16:15 26.29128 50.12818 7358 ft 290 kts 266°
2026-05-07 16:15 26.29019 50.10565 6641 ft 290 kts 266°
2026-05-07 16:15 26.28915 50.08375 6369 ft 274 kts 266°
2026-05-07 16:15 26.28817 50.06324 6236 ft 255 kts 266°
2026-05-07 16:16 26.28720 50.04422 6078 ft 239 kts 265°
2026-05-07 16:16 26.28596 50.02611 5763 ft 230 kts 265°
2026-05-07 16:16 26.28460 50.00872 5482 ft 221 kts 264°
2026-05-07 16:16 26.28326 49.99203 5217 ft 212 kts 264°
2026-05-07 16:17 26.28197 49.97594 4965 ft 206 kts 264°
2026-05-07 16:17 26.28072 49.96008 4717 ft 205 kts 264°
2026-05-07 16:17 26.27947 49.94430 4477 ft 204 kts 264°
2026-05-07 16:17 26.27824 49.92861 4241 ft 203 kts 264°
2026-05-07 16:18 26.27701 49.91296 3984 ft 203 kts 264°
2026-05-07 16:18 26.27580 49.89736 3734 ft 202 kts 264°
2026-05-07 16:18 26.27464 49.88190 3645 ft 200 kts 267°
2026-05-07 16:18 26.27643 49.86659 3566 ft 201 kts 288°
2026-05-07 16:19 26.28030 49.85724 3509 ft 201 kts 302°
2026-05-07 16:19 26.29365 49.84277 3244 ft 202 kts 331°
2026-05-07 16:19 26.30224 49.83882 3107 ft 202 kts 343°
2026-05-07 16:19 26.32036 49.83325 2769 ft 202 kts 344°
2026-05-07 16:20 26.32926 49.83053 2594 ft 200 kts 344°
2026-05-07 16:20 26.34619 49.82532 2280 ft 179 kts 344°
2026-05-07 16:20 26.35395 49.82293 2121 ft 164 kts 343°
2026-05-07 16:20 26.36448 49.81969 1893 ft 152 kts 343°
2026-05-07 16:21 26.37775 49.81559 1630 ft 148 kts 343°
2026-05-07 16:21 26.38430 49.81357 1502 ft 147 kts 343°
2026-05-07 16:21 26.39738 49.80954 1245 ft 146 kts 343°
2026-05-07 16:21 26.40384 49.80755 1117 ft 145 kts 343°
2026-05-07 16:22 26.41357 49.80454 925 ft 145 kts 343°
2026-05-07 16:22 26.42325 49.80156 733 ft 144 kts 343°
2026-05-07 16:22 26.43292 49.79858 543 ft 144 kts 343°
2026-05-07 16:22 26.44250 49.79561 343 ft 143 kts 343°
2026-05-07 16:23 26.45208 49.79264 185 ft 142 kts 343°
2026-05-07 16:23 26.46159 49.78969 100 ft 137 kts 344°
2026-05-07 16:23 26.46933 49.78726 87 ft 91 kts 344°
2026-05-07 16:23 26.47380 49.78592 89 ft 42 kts 346°
2026-05-07 16:24 26.47502 49.78561 89 ft 3 kts 351°
2026-05-07 16:24 26.47615 49.78556 88 ft 22 kts
2026-05-07 16:24 26.47777 49.78589 86 ft 26 kts 10°
2026-05-07 16:24 26.47946 49.78647 85 ft 14 kts 31°
2026-05-07 16:25 26.47966 49.78737 85 ft 15 kts 147°
2026-05-07 16:25 26.47860 49.78771 85 ft 18 kts 166°
2026-05-07 16:25 26.47694 49.78822 85 ft 33 kts 165°
2026-05-07 16:25 26.47324 49.78939 85 ft 89 kts 164°
2026-05-07 16:26 26.46532 49.79187 93 ft 144 kts 165°
2026-05-07 16:26 26.45488 49.79529 412 ft 167 kts 163°
2026-05-07 16:26 26.44325 49.79961 910 ft 184 kts 161°
2026-05-07 16:26 26.43200 49.80428 1340 ft 161 kts 159°
2026-05-07 16:27 26.42204 49.80896 1634 ft 154 kts 157°
2026-05-07 16:27 26.41224 49.81412 1841 ft 159 kts 154°
2026-05-07 16:27 26.40232 49.81989 2034 ft 162 kts 152°
2026-05-07 16:27 26.39235 49.82590 2174 ft 163 kts 160°
2026-05-07 16:28 26.38130 49.82739 2275 ft 163 kts 198°
2026-05-07 16:28 26.37363 49.81906 2077 ft 161 kts 259°
2026-05-07 16:28 26.37603 49.80714 1997 ft 175 kts 301°
2026-05-07 16:28 26.38693 49.79773 2227 ft 229 kts 340°
2026-05-07 16:29 26.40440 49.79650 1974 ft 274 kts
2026-05-07 16:29 26.42373 49.79878 1153 ft 275 kts
2026-05-07 16:29 26.44216 49.79579 467 ft 263 kts 339°
2026-05-07 16:29 26.45932 49.79039 152 ft 250 kts 342°
2026-05-07 16:30 26.47526 49.78550 104 ft 214 kts 341°